Крапивная

Россия / Камчатский край     55°56′14″N   159°23′53″E
темп.,
°C
ветер,
м/с
пор.,
м/с
влажн.,
%
обл.,
%
осадки,
мм/ч
давл.,
гПа
погр.,
м
18 апреля, вс
вс1800:00−7зсз327513 0.0 102817
03:00−8зсз21775 0.0 102811
06:00−7зсз227858 0.0 102920
09:00−3ю126824 0.0 1030194
12:00−1ю227350 0.0 1029432
15:00+1ю2381100 0.0 1026475
18:00+2ююз1285100 0.0 1026325
21:00−1зсз2291100 0.0 102612
19 апреля, пн
пн1900:00−1ссз1188100 0.0 102510
03:000с1188100 0.0 102512
06:00−1с2289100 0.0 102516
09:00+2св1289100 0.0 102584
12:00+4в238098 0.0 1025390
15:00+5всв247899 0.0 1024547
18:00+3св3583100 0.0 1025446
21:000св3692100 0.0 1026211
20 апреля, вт
вт2000:000св3791100 0.0 1026334
03:00−1св3791100 0.0 1025317
06:00−1св4789100 0.1 1025368
09:00−1св368299 0.1 1024380
12:00+1св3676100 0.1 1023410
15:00+2всв3674100 0.0 1022378
18:00+3всв357162 0.0 1021297
21:00−1св238641 0.0 102386
21 апреля, ср
ср2100:00−1ссв348594 0.0 1024102
03:000ссв358394 0.0 1025179
06:00−1св488392 0.0 1026348
09:00+1св487870 0.0 1027489
12:00+3св457216 0.0 1027621
15:00+4св457229 0.0 1027758
18:00+3св4777100 0.0 1027532
21:00+1св4885100 0.0 1029396
22 апреля, чт
чт2200:000св3787100 0.0 1030381
03:00−1св258899 0.0 1030253
06:00−1св2491100 0.0 1031218
09:00+1св2577100 0.0 1030553
12:00+3всв3469100 0.0 1030797
15:00+4св346369 0.0 1028884
18:00+4св346391 0.0 1027787
21:00+1св2481100 0.0 1028199